Flag for U.S.A. Weather past 2 weeks in Moreno Valley, California, U.S.A.

Now
51 °F

Passing clouds.


Feels Like: 51 °F
Forecast: 46 / 64 °F
Wind: No wind

Location: Riverside / March Air Force Base

Current Time: Jan 27, 2015 at 1:02:28 AM

Latest Report: Jan 26, 2015 at 11:58 PM


Visibility: 10 mi

Pressure: 30.10 "Hg

Humidity: 100%

Dew point: 51 °F

Location of Moreno ValleyLocation

Historic Weather in Moreno Valley — Graph

°F

Moreno Valley temperature yesterday

Maximum temperature yesterday: 72 °F (at 11:58 AM)
Minimum temperature yesterday: 47 °F (at 1:58 AM)
Average temperature yesterday: 58 °F

Past Weeks' High & Low Weather Summary

 TemperatureHumidityPressure
High75 °F (Jan 25, 10:58 AM)100% (Jan 11, 11:58 PM)30.28 "Hg (Jan 11, 11:58 PM)
Low33 °F (Jan 15, 6:58 AM)10% (Jan 23, 11:58 AM)29.90 "Hg (Jan 20, 3:58 PM)
Average53 °F60%30.12 "Hg
* Reported Jan 11 11:58 PM — Jan 26 11:58 PM, Moreno Valley, Weather by CustomWeather, © 2014

Note: Actual official high and low records may vary slightly from our data, if they occured in-between our weather recording intervals... More about our weather records

Advertising

Moreno Valley weather history for previous 24 hours

 ConditionsComfort  
Time TempWeatherWind HumidityBarometerVisibility
11:58 PM
Jan 26
51 °FPassing clouds.No wind100%30.10 "Hg10 mi
10:58 PM53 °FFog.2 mph100%30.09 "Hg3 mi
9:58 PM54 °FPassing clouds.3 mph100%30.08 "Hg10 mi
8:58 PM54 °FPartly cloudy.5 mph100%30.07 "Hg10 mi
7:58 PM54 °FLight rain. Mostly cloudy.3 mph100%30.07 "Hg10 mi
6:58 PM54 °FLight rain. Mostly cloudy.No wind100%30.06 "Hg10 mi
5:58 PM55 °FMostly cloudy.2 mph100%30.04 "Hg10 mi
4:55 PM55 °FLight rain. Mostly cloudy.6 mph100%30.06 "Hg10 mi
3:55 PM56 °FLight rain. Fog.12 mph100%30.07 "Hg4 mi
2:58 PM60 °FLight rain. Overcast.14 mph83%30.05 "Hg4 mi
1:58 PM64 °FLight rain. Overcast.13 mph60%30.01 "Hg10 mi
1:04 PM64 °FLight rain. Partly sunny.14 mph56%30.02 "Hg10 mi
12:58 PM66 °FPartly sunny.18 mph45%30.01 "Hg10 mi
11:58 AM72 °FPassing clouds.22 mph30%30.01 "Hg10 mi
10:58 AM71 °FPassing clouds.15 mph26%30.03 "Hg10 mi
9:58 AM69 °FSunny.14 mph27%30.04 "Hg10 mi
8:58 AM68 °FSunny.13 mphN/A30.02 "Hg10 mi
7:58 AM60 °FPassing clouds.7 mph38%30.02 "Hg10 mi
6:58 AM54 °FPartly sunny.5 mph52%30.01 "Hg10 mi
5:58 AM55 °FPassing clouds.6 mph47%30.02 "Hg10 mi
4:58 AM53 °FPassing clouds.6 mph56%30.01 "Hg10 mi
3:58 AM51 °FOvercast.5 mph68%30.00 "Hg10 mi
2:58 AM53 °FOvercast.No wind56%30.01 "Hg10 mi
1:58 AM47 °FPassing clouds.No wind63%30.02 "Hg10 mi
Weather by CustomWeather, © 2014

See weather overviewHow to use our weather pages